sat.trackr.live / text

‹ back to catalog

STARLINK-33620

NORAD 63069 · 2025-035T

PAYLOAD ACTIVE UNKNOWN

§ Identity

Operator
Country
US
Launch date
2025-02-21
Launch site
AFETR
Launch vehicle
Mass (kg)
RCS (m²)

Purposes: comms

External: N2YO · Heavens-Above · Gunter

§ Orbital elements

Epoch: 2026-05-25T03:44:57.649056Z

Period
94.27 min
Inclination
42.9994°
Eccentricity
0.0001449
Mean motion
15.27592974 rev/d
Perigee alt
482.0 km
Apogee alt
484.0 km
Semi-major
6,861.1 km
B*
4.7755e-4
RAAN
75.2909°
Arg perigee
267.7124°
Mean anomaly
92.3562°
Rev number
7,141

§ Raw data

STARLINK-336201 63069U 25035T   26145.15622279  .00012907  00000+0  47755-3 0  99902 63069  42.9994  75.2909 0001449 267.7124  92.3562 15.27592974 71413

JSON: /api/v1/satellites/63069 · /tle

For live sub-satellite position, see the globe view (requires WebGL).

§ Visibility from observer

Set your observer location to see the next 7 days of passes ≥ 10°. The values pass through the URL so the page stays shareable.

No JS? Fill the form by hand. The geolocation button needs JavaScript.